{"data":{"norad_id":66721,"intl_designator":"2025-276BH","name":"FLOCK 4H-18","alt_names":[],"object_type":"PAYLOAD","status":"ACTIVE","operator":null,"country":"US","launch_date":"2025-11-28","launch_site_code":"AFWTR","launch_vehicle":null,"mission":null,"orbit_class":"UNKNOWN","rcs_meters":null,"size_class":null,"mass_kg":null,"dimensions":null,"purposes":["earth_obs"],"wikipedia_slug":null,"has_3d_model":false,"image_url":null,"decayed_at":null,"tle_current":{"epoch":"2026-05-25T04:22:23.769120Z","epoch_age_seconds":60142,"freshness":"FRESH","line1":"1 66721U 25276BH  26145.18221955  .00005702  00000+0  27200-3 0  9992","line2":"2 66721  97.4181 219.0006 0005570 105.8250 254.3599 15.19457255 26920","mean_motion":15.19457255,"eccentricity":0.000557,"inclination_deg":97.4181,"raan_deg":219.0006,"arg_perigee_deg":105.825,"mean_anomaly_deg":254.3599,"bstar":0.000272,"rev_number":2692,"period_min":94.770681785319,"perigee_km":503.64451664236,"apogee_km":511.31509376336,"semimajor_km":6885.6168052029,"source":"CELESTRAK","updated_at":"2026-05-25T13:38:13.349145Z"}}}